User: anonymous   Login
Location: Follega
(52.8850°N, 5.7362°E)
Time: 11:16:44
(UTC+00:00)
Language:

Cosmos 1340 Rocket - Orbit

View from above orbital plane
View from above orbital plane
View from above satellite
View from above satellite

Ground track
Ground track

The orbit data is extracted from the following two-line orbital elements,

1 13068U 82013B   20226.90913062 -.00000380 +00000-0 -26570-4 0  9991
2 13068 081.2051 344.7594 0023434 106.7142 253.6656 15.07456545097023
Epoch (UTC): 13 August 2020 21:49:08
Eccentricity: 0.0023434
inclination: 81.2051°
perigee height: 528 km
apogee height: 560 km
right ascension of ascending node: 344.7594°
argument of perigee: 106.7142°
revolutions per day: 15.07456545
mean anomaly at epoch: 253.6656°
orbit number at epoch: 9702

The dashed part of the orbit path shows where the satellite is in the earth's shadow,  

DLR